Temperature
25 25 24 25 26 26 26 26 25 26 26 25 24 24 24 24 24 24 23 23 22 22 21 21 20 20 19 19 19 18 18 18 17 17 17 17 16 16 16 16 16 16 16 16
25 25 26 27 27 26 26 25 25 26 26 25 24 24 25 25 24 24 24 23 23 22 21 20 20 20 19 19 19 19 18 18 17 17 17 17 16 16 16 16 16 16 16 16
25 26 27 26 26 26 26 25 25 25 25 25 25 24 24 25 25 24 24 23 23 22 21 20 20 20 19 19 19 19 18 18 17 17 17 17 16 16 16 16 16 16 16 16
26 27 27 26 26 26 25 26 26 25 24 24 24 23 24 25 24 24 24 23 23 22 22 21 20 20 19 19 19 19 18 18 17 17 17 17 16 16 16 16 16 16 16 16
26 26 26 26 26 26 25 26 26 25 24 24 24 24 24 25 24 24 24 24 23 23 22 21 20 20 19 19 19 19 18 18 17 17 17 17 16 16 16 16 16 16 16 16
26 27 27 26 26 26 26 25 25 25 24 22 24 24 24 24 24 25 25 24 23 23 22 21 21 20 19 19 18 18 18 18 17 17 17 16 16 16 16 16 16 16 16 16
25 26 26 26 25 26 25 24 23 23 22 23 26 25 25 26 26 26 25 24 24 23 22 21 20 20 19 19 18 18 18 17 17 17 17 17 16 16 16 16 16 16 16 16
24 24 26 26 25 25 25 24 23 22 23 24 25 25 25 27 26 26 25 24 24 23 22 21 20 20 19 19 18 18 17 17 17 17 17 17 16 16 16 16 16 16 16 16
25 25 26 26 26 25 25 24 25 24 24 24 25 25 25 26 26 26 25 24 23 23 22 21 20 20 19 19 18 18 17 17 17 17 17 17 16 16 16 16 16 16 16 16
25 24 25 26 25 25 25 25 24 23 23 23 24 24 24 24 25 25 25 24 23 23 22 21 20 20 19 18 18 18 17 17 17 17 17 17 17 16 16 16 16 16 16 16
25 24 24 25 24 24 24 24 24 24 24 23 23 23 26 25 25 25 25 24 23 22 22 21 20 20 19 18 18 18 17 17 17 17 17 16 16 16 16 16 16 16 16 16
24 24 23 24 25 25 25 24 24 23 23 24 23 23 26 26 26 25 25 24 23 22 22 21 20 20 19 18 18 18 17 17 17 17 17 16 16 16 16 16 16 16 16 16
23 23 22 23 23 24 24 24 24 24 23 23 23 23 25 25 25 25 24 24 23 22 21 21 20 20 19 19 18 18 18 17 17 17 17 17 16 16 16 16 16 16 16 16
22 22 22 22 23 23 23 24 24 24 22 22 23 23 24 24 24 24 24 23 23 22 21 21 20 20 19 19 18 18 18 17 17 17 17 17 16 16 16 16 16 16 16 16
22 21 22 24 24 24 24 24 24 24 24 23 24 24 24 24 24 24 24 23 23 22 21 20 20 20 19 19 19 18 18 18 17 17 17 17 17 16 16 16 16 16 16 16
21 21 22 22 24 24 24 24 24 24 24 24 24 24 25 25 25 24 23 23 22 22 21 21 20 20 19 19 19 18 18 18 17 17 17 17 17 16 16 16 16 16 16 16
20 20 20 21 23 23 22 24 24 24 24 24 23 24 25 24 24 24 23 23 22 22 21 21 20 20 20 19 19 19 18 18 17 17 17 17 17 16 16 16 16 16 16 15
20 20 20 20 21 20 23 25 25 24 24 24 24 24 25 24 24 23 23 22 22 21 21 21 20 20 20 20 19 19 18 18 17 17 17 17 17 17 16 16 16 16 15 15
21 20 19 20 20 21 23 24 24 24 23 24 24 24 24 24 23 23 22 22 21 21 21 20 20 20 20 20 19 19 18 18 18 17 17 17 17 17 16 16 16 16 15 15
21 20 20 19 19 20 22 24 24 24 22 24 24 23 23 23 22 21 22 21 21 20 20 20 20 20 20 20 19 19 19 18 18 18 17 17 17 17 16 16 16 16 16 15
19 19 19 19 19 20 23 23 23 21 21 23 23 23 22 22 22 22 21 21 20 20 20 20 20 20 20 20 19 19 19 18 18 18 18 17 17 17 16 16 16 16 15 15
19 19 19 19 19 19 22 22 22 22 22 22 22 22 21 21 21 21 21 20 20 20 19 19 19 19 19 19 19 19 19 18 18 18 18 17 17 16 16 16 16 15 15 15
20 20 19 20 20 21 22 21 21 21 22 22 21 21 21 21 20 20 20 19 19 19 19 18 18 18 18 19 19 19 18 18 18 18 17 17 16 16 16 16 16 15 15 15
20 21 20 20 20 21 21 21 21 21 21 21 20 20 20 20 19 19 19 19 18 18 18 18 18 18 18 18 18 18 18 18 18 17 17 17 16 16 16 16 15 15 15 15
18 19 19 19 20 20 20 20 20 20 20 20 19 20 20 19 19 19 18 18 18 18 18 17 17 17 17 17 18 17 17 17 17 17 17 16 16 15 15 15 15 15 15 15
18 18 18 18 19 20 20 19 19 19 19 19 19 19 19 19 18 18 18 17 17 17 17 17 17 17 17 17 17 17 17 17 17 16 16 16 15 15 15 15 15 14 14 14
Wind_Speed
7 7 7 7 7 7 7 5 3 2 3 4 6 6 8 10 10 9 8 9 10 9 9 8 7 7 6 5 5 7 7 5 5 2 2 3 2 2 3 3 4 4 4 5
7 9 7 5 5 7 7 6 4 2 2 4 6 7 7 10 11 10 10 9 9 9 9 9 8 8 7 6 5 6 7 5 5 2 3 3 3 2 3 2 3 3 3 3
10 4 5 6 6 7 7 5 5 3 2 5 7 7 7 9 10 9 8 9 9 10 11 11 9 8 8 7 5 6 7 6 6 4 2 3 3 3 2 2 2 3 4 4
8 6 4 6 6 6 6 4 5 4 5 5 5 4 5 8 9 9 8 8 9 10 10 11 10 9 8 7 5 5 6 6 6 6 3 4 4 3 2 3 3 2 3 3
6 5 6 6 5 5 5 4 5 6 7 8 8 6 4 8 9 10 10 10 9 10 10 12 11 10 8 8 5 4 5 6 5 6 4 3 3 3 2 3 4 3 2 3
9 6 5 5 5 5 4 5 7 7 6 7 9 7 2 6 8 8 9 10 10 10 9 11 11 10 8 8 6 5 6 5 5 5 5 4 4 4 4 3 3 3 2 2
10 9 7 5 5 5 6 4 3 5 5 5 4 4 2 5 6 6 7 8 9 9 10 10 11 11 10 9 7 6 6 6 5 4 4 5 4 5 4 4 3 3 3 2
9 8 9 6 7 5 7 7 5 3 3 3 2 3 4 8 7 5 6 6 8 8 9 11 11 10 10 10 9 7 7 6 5 4 3 4 4 3 3 4 3 2 3 3
6 6 7 7 7 8 7 7 8 8 10 6 3 2 7 7 6 5 6 7 7 9 9 11 11 10 10 10 9 8 8 6 5 4 3 3 5 4 3 3 3 2 3 3
7 6 7 7 6 10 8 7 5 5 4 5 3 3 3 7 6 5 5 6 7 8 10 11 11 10 10 9 9 8 8 7 6 5 4 3 4 4 3 2 3 3 3 3
11 8 6 8 9 9 8 8 6 5 6 4 3 1 4 6 5 4 5 6 7 7 9 10 10 10 10 10 9 8 8 7 6 6 4 4 4 5 4 3 2 2 3 3
8 7 8 9 8 8 9 9 8 5 6 6 5 0 3 5 4 4 4 6 6 7 8 9 10 10 10 10 10 9 8 8 7 6 5 5 5 5 5 4 3 2 2 3
5 6 8 7 7 9 10 10 9 8 7 7 5 2 3 3 4 4 4 5 6 7 8 8 9 9 9 9 9 9 8 8 7 6 6 6 6 5 5 5 4 3 2 2
5 9 11 9 5 6 10 11 10 10 7 8 8 3 3 3 3 4 4 4 6 7 7 8 8 8 9 9 9 9 8 8 8 7 6 6 6 6 6 5 5 4 3 2
6 11 14 14 10 9 11 12 13 14 12 11 10 6 4 3 3 4 4 4 6 7 8 8 8 8 8 9 9 9 8 8 8 8 7 6 6 6 5 5 4 4 3 3
8 10 12 14 13 11 13 14 15 15 14 13 11 8 2 2 2 3 4 4 5 6 8 9 8 8 9 9 9 9 9 8 8 8 7 6 6 6 6 6 5 5 4 3
9 10 11 12 12 12 14 13 14 13 12 11 10 6 2 1 2 2 3 3 3 5 7 9 9 9 9 10 10 10 10 9 9 8 8 7 6 6 6 6 6 5 4 4
12 11 8 9 10 13 8 5 7 10 10 8 7 4 4 2 2 2 3 3 3 3 4 7 8 7 8 9 9 9 9 9 9 8 8 7 7 7 7 6 6 5 4 4
14 12 8 8 11 11 8 6 6 7 7 5 5 4 3 3 3 3 3 3 3 3 3 3 5 6 7 8 9 9 9 9 9 9 8 8 8 8 8 7 7 5 5 5
14 12 11 9 10 9 5 2 1 4 6 2 3 3 2 3 4 2 2 3 3 3 2 2 2 4 5 6 8 9 9 9 9 8 8 8 8 8 8 8 7 5 5 5
13 13 13 12 11 8 4 1 2 5 2 0 1 1 2 2 1 1 3 4 4 3 2 2 2 3 3 5 7 7 8 8 8 8 8 8 8 8 9 8 7 6 6 6
12 10 12 11 11 8 1 3 3 1 1 1 1 0 1 1 1 1 3 4 5 3 3 3 2 2 3 4 6 6 6 5 7 8 8 8 7 7 7 7 7 6 6 6
11 8 5 6 5 2 2 1 0 2 3 2 2 1 1 0 1 2 3 3 4 4 4 3 2 2 3 3 4 5 4 5 7 8 8 7 7 6 6 7 7 6 6 5
8 8 8 7 5 5 2 1 2 2 2 3 3 1 0 1 1 2 2 2 3 3 3 3 3 3 3 3 3 3 4 5 7 7 7 7 6 6 5 5 5 5 5 5
5 6 8 9 6 5 4 3 3 2 2 3 3 2 1 1 1 1 2 2 2 3 3 3 3 4 4 4 4 4 4 5 6 7 7 7 6 6 6 5 4 5 4 5
8 7 6 5 5 5 3 2 2 2 1 2 2 2 2 0 1 1 2 2 2 3 3 3 3 4 4 4 4 4 4 5 6 6 6 5 5 6 6 6 5 5 4 6
Wind_Direction
212 231 230 224 229 271 292 285 264 218 170 227 246 237 203 190 198 199 190 188 182 176 161 146 140 138 137 135 137 136 137 131 122 118 117 114 101 85 78 73 68 59 53 73
217 235 243 240 248 267 275 281 275 252 189 256 256 247 218 194 198 201 197 188 177 171 156 150 159 158 147 151 168 146 138 136 128 132 139 131 124 109 95 76 66 67 71 76
227 233 231 239 243 254 259 271 286 292 283 261 263 255 220 197 197 195 199 186 176 175 166 164 166 150 148 161 173 154 140 139 135 128 97 103 92 84 93 90 67 52 65 57
239 242 238 240 244 255 265 274 283 279 274 272 250 272 225 192 185 190 189 186 183 180 169 163 158 152 158 161 165 151 143 139 131 127 119 126 130 139 139 135 139 115 97 80
234 222 238 247 246 251 282 310 280 271 268 273 259 260 236 173 181 189 188 186 185 177 169 162 157 159 159 148 144 135 125 122 120 129 126 121 130 138 125 127 130 124 105 102
246 226 232 246 260 251 261 273 260 250 261 261 245 237 236 174 179 179 180 184 181 175 167 159 153 152 146 139 138 131 124 123 126 135 140 151 145 136 133 133 142 140 132 124
232 219 210 224 239 232 239 248 251 224 220 244 218 214 189 120 127 147 165 175 170 166 161 157 153 155 151 148 147 141 135 135 146 162 167 164 158 159 153 148 146 146 136 136
222 216 198 203 228 232 230 233 253 275 276 290 196 210 121 108 111 128 150 156 157 161 163 158 156 158 154 153 153 155 153 152 157 174 180 161 151 141 130 134 134 142 134 142
235 216 185 190 220 238 234 241 260 284 295 289 224 157 111 115 124 136 146 152 161 165 161 156 155 160 159 156 157 161 156 153 160 174 184 168 144 139 142 144 133 130 142 141
269 254 205 185 209 233 246 264 267 264 284 279 263 218 165 147 138 137 144 153 156 161 163 160 158 162 163 157 158 162 161 165 169 172 184 159 137 135 143 145 142 141 137 132
264 256 213 194 210 223 223 237 247 260 265 280 292 42 84 115 118 137 147 147 153 159 163 159 158 162 159 155 158 164 167 164 163 169 170 155 143 143 143 136 153 163 157 151
254 265 240 219 211 225 229 238 242 247 263 266 273 185 85 102 107 111 118 127 143 149 152 154 157 159 162 163 164 169 172 168 166 169 167 162 162 164 155 158 171 168 165 157
262 260 247 212 200 209 229 231 243 253 261 264 261 174 125 110 110 108 111 123 133 142 148 151 155 162 163 162 165 169 171 166 164 169 174 170 167 168 161 161 158 162 157 149
271 255 253 244 243 217 229 238 236 242 248 258 262 233 190 182 144 132 140 142 142 150 155 156 158 165 166 167 171 169 169 167 166 168 177 176 170 168 167 162 162 156 147 135
244 254 260 266 264 247 239 239 238 240 244 253 264 257 231 181 161 148 146 155 158 160 162 164 165 170 170 171 175 169 169 168 169 167 174 179 168 157 152 146 144 137 135 138
236 256 263 265 264 259 252 238 237 240 245 254 265 272 245 179 165 153 159 165 174 175 171 170 173 177 180 176 175 171 169 169 170 167 170 169 163 153 153 152 149 142 139 133
233 251 258 261 262 260 249 242 235 238 240 246 253 260 261 190 177 180 166 168 192 187 174 172 179 186 187 181 178 177 175 170 171 169 168 169 168 161 162 157 147 145 144 131
236 245 252 259 258 246 246 240 237 240 240 240 245 249 254 214 168 155 151 168 197 188 175 171 177 184 184 179 175 174 169 167 170 172 172 170 167 163 159 154 156 153 147 141
229 233 241 242 248 253 253 247 234 237 241 237 238 248 252 219 192 187 174 160 168 168 169 170 176 180 182 176 169 168 169 172 176 178 177 173 170 165 163 163 162 159 156 156
220 226 233 239 243 242 243 232 245 246 237 231 232 237 258 225 213 196 162 145 144 137 144 165 188 184 177 167 162 169 175 176 179 178 174 171 168 167 167 168 165 162 158 162
209 217 225 236 243 249 262 199 189 223 226 142 221 207 251 258 242 173 138 129 120 123 137 153 172 160 167 160 161 175 180 181 175 166 164 165 167 170 168 167 165 162 162 162
219 217 220 227 237 239 231 176 209 281 4 33 358 305 255 333 358 63 114 124 124 123 122 126 149 149 150 160 163 176 183 171 155 151 155 159 163 167 168 161 162 161 160 165
221 220 224 228 231 217 162 174 354 331 314 355 5 342 65 59 89 75 99 116 130 133 130 129 145 157 149 153 159 173 168 150 145 146 149 152 152 153 155 158 160 162 165 170
230 225 234 239 232 238 249 271 269 282 314 347 349 346 42 139 115 112 125 130 132 141 135 137 162 168 159 149 147 155 147 146 146 150 152 149 149 142 140 141 153 158 170 177
261 246 239 242 243 242 221 235 266 329 334 328 326 336 307 180 163 161 156 147 148 137 132 149 170 164 162 157 151 147 152 154 152 151 149 149 146 143 141 136 136 153 161 172
246 247 243 249 258 252 232 231 268 281 274 278 302 314 317 259 172 179 165 154 154 154 160 173 170 162 159 154 151 147 147 147 145 142 144 145 145 145 144 138 124 98 112 130
Height
1505 1506 1506 1502 1501 1501 1500 1502 1505 1503 1500 1505 1508 1508 1506 1508 1511 1513 1516 1518 1521 1524 1527 1529 1532 1534 1536 1538 1539 1540 1542 1543 1544 1545 1546 1547 1548 1549 1549 1550 1551 1551 1552 1552
1503 1504 1498 1496 1497 1499 1500 1503 1504 1501 1499 1503 1505 1505 1502 1504 1507 1510 1512 1515 1518 1522 1525 1528 1531 1533 1535 1537 1539 1540 1541 1543 1544 1545 1546 1548 1549 1549 1550 1551 1551 1552 1552 1553
1500 1497 1494 1496 1498 1501 1501 1503 1503 1504 1501 1501 1505 1507 1501 1500 1503 1506 1509 1512 1516 1519 1523 1526 1529 1532 1534 1536 1538 1540 1541 1543 1544 1546 1547 1548 1549 1550 1551 1551 1552 1552 1553 1553
1495 1492 1494 1497 1498 1500 1504 1498 1499 1503 1509 1510 1506 1517 1502 1497 1500 1503 1507 1510 1513 1517 1520 1523 1527 1530 1533 1535 1537 1539 1541 1542 1544 1545 1547 1548 1549 1550 1551 1551 1552 1553 1553 1554
1494 1493 1495 1498 1497 1497 1500 1497 1499 1502 1507 1510 1505 1511 1504 1494 1500 1500 1503 1507 1510 1514 1517 1521 1525 1528 1531 1534 1537 1539 1540 1542 1543 1545 1546 1547 1549 1550 1551 1552 1552 1553 1554 1554
1491 1490 1492 1494 1494 1495 1496 1499 1500 1502 1507 1518 1504 1508 1506 1494 1495 1495 1499 1503 1507 1511 1515 1519 1523 1526 1530 1533 1535 1538 1540 1541 1543 1544 1546 1547 1548 1549 1550 1551 1552 1553 1554 1554
1494 1490 1491 1493 1496 1496 1498 1508 1519 1520 1521 1513 1492 1499 1500 1487 1487 1491 1496 1500 1504 1509 1513 1517 1521 1524 1528 1531 1534 1536 1539 1540 1542 1544 1545 1546 1548 1549 1550 1551 1552 1553 1554 1555
1498 1499 1490 1492 1495 1499 1498 1503 1518 1525 1519 1507 1494 1499 1491 1484 1488 1491 1495 1499 1503 1507 1511 1515 1518 1522 1526 1529 1532 1535 1537 1539 1541 1543 1545 1546 1547 1548 1550 1551 1552 1553 1554 1555
1493 1495 1486 1489 1492 1494 1499 1500 1496 1505 1505 1509 1500 1492 1489 1485 1488 1491 1495 1498 1502 1505 1509 1513 1517 1521 1524 1527 1531 1534 1536 1538 1540 1542 1544 1545 1546 1547 1549 1550 1552 1553 1554 1555
1486 1493 1487 1488 1491 1492 1493 1495 1500 1508 1518 1519 1505 1499 1499 1492 1491 1492 1494 1498 1501 1504 1508 1512 1515 1519 1523 1526 1529 1532 1535 1537 1539 1541 1543 1544 1545 1547 1548 1550 1551 1552 1554 1555
1486 1492 1491 1489 1493 1495 1496 1498 1498 1502 1504 1516 1518 1508 1484 1488 1488 1491 1493 1496 1500 1503 1507 1510 1514 1518 1521 1524 1527 1531 1533 1536 1538 1540 1541 1543 1544 1546 1547 1549 1550 1552 1553 1554
1487 1489 1493 1489 1484 1486 1490 1493 1497 1509 1507 1502 1510 1508 1483 1485 1488 1490 1493 1496 1499 1502 1505 1509 1512 1516 1520 1523 1526 1529 1531 1534 1536 1538 1540 1542 1543 1545 1547 1548 1549 1551 1552 1554
1490 1493 1499 1497 1494 1489 1490 1489 1491 1494 1500 1503 1509 1506 1485 1486 1488 1491 1493 1496 1499 1502 1505 1508 1511 1515 1518 1521 1524 1527 1529 1532 1534 1536 1538 1540 1542 1544 1546 1547 1548 1550 1552 1553
1492 1492 1495 1499 1493 1488 1491 1489 1488 1494 1503 1503 1499 1496 1489 1487 1489 1491 1493 1496 1498 1501 1504 1507 1510 1513 1516 1519 1522 1525 1527 1530 1532 1534 1536 1538 1540 1542 1544 1546 1548 1549 1550 1552
1491 1493 1487 1482 1479 1480 1484 1486 1486 1489 1491 1496 1492 1489 1486 1485 1487 1490 1492 1495 1497 1500 1503 1506 1509 1512 1515 1517 1520 1523 1525 1528 1530 1532 1534 1537 1539 1541 1543 1545 1546 1548 1549 1551
1490 1491 1488 1486 1479 1478 1480 1480 1482 1483 1484 1485 1485 1486 1480 1483 1485 1488 1491 1493 1496 1498 1501 1504 1506 1510 1512 1515 1518 1520 1523 1525 1528 1530 1532 1535 1537 1539 1541 1543 1545 1546 1548 1550
1489 1491 1493 1491 1481 1480 1484 1475 1476 1478 1477 1480 1485 1483 1480 1482 1484 1487 1490 1492 1494 1496 1498 1501 1504 1507 1510 1512 1515 1517 1520 1523 1525 1528 1530 1533 1535 1537 1539 1541 1543 1545 1546 1548
1488 1490 1491 1491 1488 1496 1477 1465 1467 1471 1472 1474 1475 1477 1478 1481 1484 1486 1488 1491 1493 1495 1496 1499 1501 1504 1507 1510 1512 1515 1518 1520 1523 1526 1528 1530 1533 1535 1537 1539 1541 1543 1544 1546
1482 1487 1490 1491 1492 1484 1471 1465 1466 1471 1473 1471 1474 1475 1477 1479 1482 1484 1487 1489 1491 1493 1494 1496 1499 1502 1504 1507 1509 1512 1515 1518 1520 1523 1525 1528 1530 1532 1534 1537 1538 1540 1542 1544
1477 1480 1487 1487 1492 1490 1474 1464 1464 1469 1476 1471 1472 1474 1477 1478 1483 1484 1485 1486 1489 1491 1493 1495 1497 1499 1502 1504 1507 1510 1512 1515 1517 1520 1522 1525 1527 1529 1532 1534 1536 1538 1540 1542
1478 1480 1483 1485 1486 1477 1466 1464 1466 1480 1478 1471 1471 1474 1476 1477 1480 1482 1482 1484 1487 1489 1491 1493 1495 1497 1499 1501 1504 1507 1510 1512 1514 1517 1520 1522 1524 1526 1529 1531 1533 1536 1538 1540
1473 1476 1478 1480 1484 1481 1465 1465 1469 1471 1469 1470 1472 1473 1475 1477 1478 1479 1481 1482 1485 1487 1489 1491 1493 1495 1497 1499 1502 1504 1507 1510 1512 1514 1517 1519 1522 1524 1526 1529 1531 1533 1535 1537
1465 1467 1468 1470 1472 1466 1464 1466 1468 1469 1470 1470 1472 1473 1474 1476 1477 1479 1480 1482 1484 1486 1487 1489 1491 1493 1495 1497 1499 1502 1504 1507 1509 1512 1514 1517 1519 1521 1524 1526 1528 1530 1533 1534
1460 1461 1463 1465 1464 1464 1465 1466 1468 1469 1470 1471 1472 1473 1474 1476 1477 1479 1480 1482 1483 1485 1486 1488 1490 1491 1493 1495 1497 1499 1502 1504 1506 1509 1511 1514 1516 1518 1521 1523 1525 1527 1529 1531
1461 1461 1461 1462 1462 1464 1464 1466 1468 1469 1470 1471 1472 1472 1474 1475 1476 1478 1479 1480 1482 1483 1485 1486 1488 1490 1491 1493 1495 1497 1500 1502 1504 1506 1509 1511 1513 1515 1517 1520 1522 1524 1525 1527
1460 1461 1462 1463 1462 1463 1463 1465 1467 1468 1469 1471 1471 1472 1473 1474 1475 1477 1478 1479 1481 1482 1483 1485 1487 1488 1490 1491 1493 1495 1497 1500 1501 1504 1506 1508 1511 1513 1515 1517 1519 1521 1523 1525